Location: Newark
(39.0083°N, 20.7336°E)
Time: 12:12:23
(UTC+00:00)

ISS - Pass Details

Date: 27 September 2021
Orbit: 417 x 423 km, 51.6° (Epoch: 24 October)

Event Time Altitude Azimuth Distance (km) Brightness Sun altitude
Rises 18:12:58 0° 315° (NW) 2,365 1.1 -21.4°
Reaches altitude 10° 18:16:06 10° 348° (NNW) 1,501 -0.6 -22.0°
Enters shadow 18:17:16 12° 8° (N) 1,375 -1.1 -22.2°
